CAPE
3093 3285 3336 3151 3517 3331 3009 3195 3151 2978 2594 2706 2492 2296 2191 2243 2190 1759 1976 1496 1413 2088 2718 2672 3140 3164 2792 3037 2880 3017 3486 3395 3333 3779 3953 4362 4316 4060 3772 3994 4008 3832 4083 4057 3267 3629 4337 3994 4073 4246 4135 4056 4145 3836 3329 3758 3652 3718 3539 3806 3979 3637 3386 3408 3271 3379 3769 3692 3728 3259 2959 3206 2722 3063 3218 2981 3030 3583 3569 3371 3300 3083 2999 2986 2929
3338 3312 3476 3051 3234 3115 3130 2897 3010 2938 2460 2603 2634 2842 2470 2390 2514 2123 2136 2204 1891 1691 2418 2500 3065 3161 3014 3174 3054 3185 3784 3936 3296 3649 4002 4081 3938 3256 3749 4708 4098 4234 4052 3925 4013 3826 4330 4231 4306 4191 4298 4048 3990 3513 3436 2894 3537 3370 3858 3575 3755 3977 4014 3892 3921 3747 3642 3838 3942 4036 3778 3538 3182 3425 3545 4119 3733 3742 3560 3660 3609 3452 3610 3714 3476
3088 3641 3483 3132 3327 3535 3207 3167 3025 3000 2766 2492 2414 2398 2398 2225 2409 2229 1593 1780 2340 1995 2416 2269 2778 3234 3189 3302 3213 3121 3828 3598 3273 3320 3530 3888 3878 3498 3112 3509 4201 4116 4216 4202 3869 3856 3938 4174 4139 4210 4021 3929 3995 3737 3361 3596 3314 3538 3667 4171 4064 3774 4363 4187 4084 4041 3757 3814 4028 3542 3417 4042 3929 3772 3779 3878 3903 3989 4064 4153 3952 3621 3710 3821 3844
3110 3527 3452 3108 3244 3410 3364 3187 2936 2674 2561 2333 2153 2149 2029 1854 2125 2253 1741 1678 2216 2481 2618 2510 3053 3317 3233 3318 3302 3020 3615 3286 3088 3336 3620 3779 3857 4022 3872 3485 3501 3899 4107 4084 3955 4070 3772 3864 3778 3821 3829 3771 4107 4133 3964 3693 3548 3897 3374 3202 3265 3628 3918 3886 4194 3583 3426 3571 3949 3996 3874 3779 4040 4170 4101 3911 3827 3851 4074 3945 3866 3787 3802 3750 3559
3121 3185 3136 3138 2888 3192 2975 2963 2637 2781 2672 2305 2171 2058 2076 1825 1639 1732 1653 1593 1877 2220 2802 2938 3202 3418 2988 3144 3230 2990 3030 3138 3164 2930 3261 3398 3785 3824 3752 3862 3737 3781 3769 3984 4259 4181 4030 3739 3765 3796 3970 3830 3972 3878 3876 4186 4217 3772 3762 3766 3681 3671 3508 3662 3892 4266 4336 4188 4195 4261 4512 4264 3880 3824 3990 3914 4091 4190 4154 4197 4056 3795 3763 3564 3459
3115 3208 3140 2986 2736 2963 2978 2914 2947 2584 2474 2341 2388 2184 2026 1837 1593 1628 1776 1709 2022 1847 2698 2893 3107 3384 2912 2890 3239 3053 2929 2968 3247 3178 3039 3160 3514 3560 3802 3809 3392 3630 3814 3830 3933 3913 3873 3930 3778 3952 3749 3667 3615 3566 3925 4203 4308 3931 3806 4174 4301 4372 4715 4768 4779 4790 4670 4457 4240 4098 4186 4157 4103 4142 4180 4475 4408 3871 3656 3768 4030 4045 3946 4073 4077
3551 3199 3132 2707 3067 3295 3300 3013 2853 2518 2696 2536 2240 2137 1716 1856 1908 1787 1953 1816 1711 1898 2081 2658 2960 3349 3216 3026 3012 3217 3146 2994 3246 3497 3376 3217 3252 3403 3207 3679 3532 3392 3476 3452 3493 3661 3629 3653 3832 3799 3723 3806 3632 3593 4100 4400 4236 4105 4454 4614 4405 4460 4427 4260 4488 4599 4454 4264 4163 4075 3911 3998 4099 4341 4283 3896 3552 3412 3458 3614 4122 4850 6111 5482 4677
3710 3730 3490 3306 3304 3498 3263 3163 3030 3026 2776 2840 2890 2455 1940 2140 2471 2463 2483 2230 1631 1668 2058 2290 2824 3132 3303 3043 3066 3213 3535 3297 3504 3688 3628 3435 3328 3363 3375 3440 3381 3339 3108 3262 3246 3115 3453 3477 3184 3531 3569 3663 3592 3734 3771 4073 4233 4126 4390 4382 4526 4664 4468 4434 4642 4640 4412 4137 4164 4046 4072 4089 3903 3810 3882 4047 4190 4192 4618 4729 4688 5044 5091 4928 4394
3735 3516 3722 3557 3509 3591 3553 3295 3229 3312 2984 3110 2986 2718 2329 2261 2570 2754 2698 2435 1804 1336 2076 2184 2549 2863 3264 3282 3231 3144 3528 3574 3563 3829 3753 3601 3204 3211 3377 3316 3304 3175 3097 2901 2932 2998 2947 2890 2968 2850 3257 3602 3305 3358 3450 3671 3841 4103 4247 4409 4716 4676 4736 4775 4799 4664 4475 4241 4053 4150 4161 3916 3840 3918 3911 4040 4530 4589 4132 5440 5058 4812 4299 3838 4057
3770 3617 3661 3737 3788 3824 3947 3684 3432 3507 3337 3296 3146 2958 2714 2441 2244 2726 2840 2577 2322 1934 1755 2523 2590 2864 3333 3847 3761 3461 3491 3705 3629 3494 3471 3620 3474 2769 3226 3432 3163 2930 3145 3044 2868 2903 2633 2464 2124 2768 2728 3082 2770 2733 2815 2969 3247 3940 4417 4881 4682 4676 4785 4813 4745 4691 4726 4499 4109 3878 3796 3680 3580 3323 3393 3678 3854 3757 4858 4988 4574 4265 3828 3561 3339
3819 3662 3861 3985 4136 4078 4149 3952 3727 3710 3512 3428 3156 2977 2858 2485 2249 2601 2946 2756 2584 2606 2283 2482 2636 2708 2920 3462 3814 3575 3499 3669 3637 3544 3434 3523 3494 3246 3112 3600 3588 3438 3237 3263 3025 2621 2668 2701 2345 2436 3830 2670 2616 2516 2573 2674 2769 2794 3046 3567 4664 5468 4920 5004 4716 4674 4697 4463 4404 4350 4017 3766 3830 3780 3769 3353 3348 5149 4945 4822 4422 3989 3647 3353 3267
3776 3889 4232 4300 4506 4327 4258 4283 4106 3945 3635 3475 3264 3102 2853 2693 2524 2666 2906 2904 3052 2959 2572 2509 2620 2697 2672 3043 3482 3774 3616 3363 3634 3588 3683 3732 3532 3639 3283 3371 3586 3637 3326 2837 2981 2922 2791 2475 2290 1817 1775 3288 3302 2654 2414 2572 2634 2670 2726 2775 2801 2616 2519 3029 3134 3471 4168 4484 4406 4100 3950 3904 3995 3875 3696 3357 4457 4812 4825 4656 4389 4009 3682 3475 3310
3763 4160 4434 4457 4690 4547 4440 4446 4244 3999 3778 3650 3522 3256 3116 2971 2785 2714 2793 2969 3218 3258 2784 2592 2693 2766 2826 3002 3345 3782 3712 3122 3437 3620 3618 3688 3677 3618 3456 3075 3032 3484 3443 3219 2770 2798 2805 2634 2160 1750 1190 2353 4160 3463 3154 2668 2447 2647 2768 2777 2719 2580 2342 2064 1786 1863 2363 3104 3339 3503 3558 3638 3502 3508 3615 4042 4712 4375 4688 4682 4406 4042 3776 3509 3084
3793 4088 4578 4626 4742 4791 4659 4577 4394 4113 3988 3991 3768 3348 3195 3272 2866 2664 2524 2930 3291 3381 3157 2760 2698 2921 2984 3251 3257 3535 3829 3301 3097 3486 3563 3552 3669 3669 4040 3529 3142 3014 3522 3601 3223 3110 3076 2910 2785 2636 2340 2183 3352 3742 4345 3605 3434 2800 2673 2763 2738 2716 2702 2563 2460 2306 2156 2099 2332 2445 2664 3339 3739 3974 4576 4938 4853 4830 4684 4395 4147 3856 3528 3151 2946
4063 4306 4630 4764 4847 4948 4916 4806 4625 4333 4137 4062 3982 3610 3333 3377 3114 2584 2240 2595 3301 3535 3285 2931 2820 2843 2906 3292 3529 3388 3593 3518 3072 3134 3497 3540 3614 3601 3810 3372 3009 3035 3315 3632 3862 3549 3363 3078 3064 3049 3011 2799 2852 4094 4591 4693 4551 4592 3996 3223 3183 3375 3312 3203 3069 2836 2604 2360 2100 2282 2649 3127 3925 4747 4884 5164 5046 4858 4590 4196 4103 3648 3163 2870 2814
4453 4290 4552 4765 4824 4980 4995 5019 4932 4514 4256 4056 4056 3941 3563 3465 3399 2930 2447 2279 2893 3700 3672 3098 3077 2929 2823 2620 2576 3319 3103 3564 3197 3056 3307 3503 3500 3445 3538 3464 2961 2926 3171 3305 3583 3902 3808 3583 3183 3100 3098 3369 3147 2366 3028 4348 4969 5702 5627 4973 4559 4290 4121 4142 3963 3722 3450 3256 3110 2981 2903 2900 3378 4481 4274 3846 3667 4309 4180 3816 3097 2536 2272 2398 2037
4370 4411 4410 4772 4733 4991 4924 5052 5068 4795 4391 4036 4018 4002 3762 3575 3522 3255 2943 2608 2743 3480 3509 3173 3240 3130 2769 2886 2899 3021 4165 3592 3334 3143 3149 3356 3389 3315 3393 3495 3340 2997 2969 3672 3930 3845 3778 3747 3989 3666 3452 3678 3658 3026 2281 2262 3957 4436 4796 5345 5447 5166 5000 4930 4612 4398 4269 4013 3639 3338 3162 3059 3243 3468 3469 3300 3017 3183 3326 3183 2564 1968 2004 2065 1798
4410 4531 4399 4523 4578 4721 4921 5058 5102 4952 4637 4130 4020 3971 3903 3638 3420 3393 3260 2898 2373 2712 3356 3422 3414 3200 2855 2913 3097 3372 3688 3438 3320 3202 3121 3092 3086 3101 3427 3586 3509 3271 3193 3282 3521 3628 3582 3880 4401 4188 4113 4075 3751 3458 3075 2481 3186 3992 4444 4746 4902 4754 4716 4197 3381 3596 4329 4284 3989 3634 3343 3131 3149 3215 3055 3064 3277 3442 3301 2410 1996 1997 2030 1838 1499
4156 4560 4313 4313 4438 4777 5115 5226 5079 4848 4843 4412 3786 4056 3893 3692 3357 3459 3110 2868 2886 3418 3611 3665 3579 3440 3108 3135 3055 3349 3305 4350 3162 3133 3129 3106 3064 3157 3467 3624 3666 3510 3473 3445 3518 3724 3968 4058 4624 4464 4367 4244 4022 3790 3515 3260 3602 3983 4263 4173 4301 4383 4072 3592 3975 4345 3588 3497 3601 3606 3414 3240 3174 3329 3362 3457 3406 3339 2871 2274 1646 1795 1850 1657 1303
3754 4481 4387 4293 4564 4896 4989 5234 5259 4904 5010 4816 4458 4568 4291 3674 3431 3290 3011 2759 2894 3207 3653 3701 3993 3825 3309 3105 3442 3445 3275 5528 3066 2985 2990 3002 3009 3155 3706 3695 3614 3637 3598 3587 3573 3545 3686 4128 4228 3615 3735 3903 3870 3773 3792 3785 3964 4557 4483 4286 4171 4237 3870 3917 4547 6842 4268 3873 3798 3789 3842 3850 4032 3835 4041 4099 3818 3490 2873 2582 1941 1824 1774 1972 1191
3902 4801 4537 4291 4636 4941 4892 5132 5082 4716 4750 4747 4663 4719 4394 3889 3318 3482 3144 2793 2848 3011 3427 3754 3758 3824 3404 3398 3253 3396 3192 4425 3915 3032 2916 2929 2947 3062 3818 3772 3671 3684 3808 3759 3660 3553 3589 3577 3643 3950 3710 3584 3657 3733 3769 3845 3898 4542 4695 4501 4632 5665 4361 4701 5785 4366 5111 5103 4614 4694 4719 4652 4374 4365 4158 3768 3565 3849 3043 2300 1998 1904 1774 1668 1214
4152 4739 4670 4397 4478 4625 4696 4972 5104 4648 4745 4888 4868 4814 4475 4306 4235 3935 3382 3222 3135 3152 3028 3175 3318 3541 3633 3683 3428 3423 3392 3215 3425 3448 3000 2839 2890 2924 3668 3934 3740 3858 3894 3933 3855 3565 3599 3880 3692 3537 3677 3748 3561 3520 3624 3736 3786 3786 4602 4434 4251 4103 3997 3989 4029 4749 5267 5104 4652 4165 3958 3928 4025 4309 3764 2294 1434 1404 2361 2146 2097 1998 1954 1850 1480
4370 4819 4863 4633 4552 4661 4755 4793 4941 4442 4568 5024 5039 5116 5046 4762 4579 4429 4032 3835 3644 3546 3371 3116 2918 3156 3333 3654 3513 3550 3558 3281 3162 3137 3135 2963 2826 2889 3120 3642 3568 3648 3924 4000 3971 3917 3900 3724 3808 3786 3522 3558 3642 3556 3442 3408 3538 3656 3889 4021 3968 3879 3786 3588 3468 3875 4016 4067 3956 3959 4027 4127 4044 3287 2600 2308 2095 2047 2038 2148 2146 2161 2053 2022 1566
4796 4932 4808 4700 4750 4745 4863 4833 4887 4632 4791 5149 5182 5180 5135 4864 4893 4703 4549 4268 3979 3888 3774 3514 3084 2856 2961 3235 3357 3357 3708 4087 3252 3176 3156 3163 3036 2849 2840 3160 3486 3578 3815 3965 4226 4179 4285 4102 3776 3581 3695 3507 3546 3597 3567 3400 3280 3392 3548 3715 3717 3615 3376 3064 2979 3108 3344 3486 3752 3855 3978 4117 3760 2940 2611 1996 1878 2024 2157 2118 2045 1934 2206 1966 1510
4894 4940 4914 4808 4863 4640 4719 4728 4694 4629 4637 5158 5120 5054 5140 4871 4958 4980 4701 4538 4288 4069 4097 3764 3448 3087 2954 3035 3323 3301 3382 3965 3717 3232 3188 3154 3133 3077 2992 2907 3170 3354 3423 3910 3995 4102 4173 3978 4046 3913 3510 3666 3834 3819 3786 3744 3638 3423 3240 3252 3294 3228 3073 2897 2731 2884 3063 3268 3481 3781 3817 3816 3236 2808 1876 1824 1987 2113 2120 2085 1975 2162 2023 1736 1375
4914 5081 4912 4835 4728 4422 4351 4383 4562 4554 4595 5040 5181 5069 5021 4702 4787 5150 4878 4577 4498 4319 4262 3988 3778 3398 3261 3149 3277 3572 3620 3724 4947 3437 3302 3310 3214 3210 3144 3063 3028 3160 3277 3684 3664 3528 3472 3555 3656 3786 3992 3835 3853 3954 3966 3916 3779 3572 3388 3216 3089 2978 2879 2671 2689 2999 3340 3466 3548 3612 3759 3312 2802 1900 1840 1946 2087 2188 2309 2346 2310 2141 1817 1679 1212
4872 5034 4970 4627 4618 4374 4206 3880 3956 4497 4634 4871 5112 5059 4938 4681 4706 4870 4762 4468 4485 4454 4614 4122 4052 3644 3524 3309 3438 3679 3818 3875 5162 4075 3419 3383 3378 3484 3503 3390 3210 3064 3043 3195 3197 3214 3251 3306 3338 3349 3434 3800 3832 3767 3845 3788 3658 3474 3266 3113 2877 2583 2382 2661 2754 3057 3542 3790 3647 3457 2944 2168 1699 1528 1563 1880 2342 2374 2371 2215 2075 1905 1682 1509 1016
5028 5139 4780 4523 4367 4358 4404 3805 4153 4153 4497 4329 4760 4769 4901 4726 4852 4708 4691 4473 4432 4404 4468 4159 4150 3957 3751 3459 3538 3713 3767 3656 4356 3915 3696 3486 3461 3466 3498 3467 3384 3264 3108 3004 3002 3042 3025 3048 3120 3232 3228 3244 3451 3531 3499 3446 3346 3233 3115 2932 2550 2025 2304 2714 3087 3339 3658 3686 3396 3013 2258 1683 1280 1374 1982 2420 2567 2546 2105 2082 2025 1828 1538 1346 703
4908 5038 4867 4582 4381 3840 4225 4326 4327 4066 4345 4725 4834 4846 4825 4810 4643 4502 4507 4714 4587 4375 4382 4126 4219 4041 3885 3873 3649 3645 3739 3734 3835 4466 3858 3621 3543 3546 3538 3524 3486 3353 3185 3051 2947 2848 2755 2750 2830 2920 3030 3087 3004 3150 3211 3213 3168 3084 2996 2867 2753 2479 2594 2928 3059 3163 3490 3249 3006 2401 1658 1466 1749 2307 2476 2510 2536 2463 2178 2074 1816 1611 1423 1035 431
5096 5118 4879 4644 4447 4178 4152 4402 4421 4051 4098 4687 4788 4404 4534 4283 5138 4935 4861 4503 4419 4194 4100 4380 4330 4097 3960 4147 4043 3963 3853 3894 3656 4052 4166 3896 3680 3591 3537 3512 3508 3413 3236 3189 3145 3227 3167 3057 2733 2624 2690 2784 2866 2844 2778 2765 2778 2754 2710 2598 2511 2519 2686 2701 2668 2718 2710 2615 2624 2240 2112 2310 2578 2571 2558 2515 2422 2232 2087 1822 1661 1475 1161 667 331
5071 4896 4759 4546 4253 4158 4265 4303 4437 4502 4543 4741 4709 4448 4382 4289 4306 4304 4503 4409 4259 4016 4036 4136 3919 3889 4454 4261 5446 3515 3700 3816 3545 3497 3825 3899 3846 3710 3541 3440 3385 3359 3340 3407 3380 3342 3334 3271 3103 2782 2684 2899 2707 2715 2694 2753 2708 2592 2500 2329 2133 2330 2543 2696 2566 2499 2365 2324 2242 2329 2577 2673 2554 2559 2520 2255 2273 2197 1858 1830 1608 1304 848 466 339
4989 4766 4727 4489 3955 3772 4382 4380 4424 4828 4775 5100 4776 4322 4246 4300 4220 4176 4206 4211 4027 3887 3824 3698 3493 3749 3932 5626 4563 3532 3467 3896 3835 3712 3702 3814 3851 3837 3801 3731 3685 3634 3670 3643 3604 3549 3468 3291 3063 2828 2645 2649 2761 2828 2764 2645 2658 2559 2457 2244 2014 2102 2221 2467 2325 2129 1966 1838 1998 2557 2698 2597 2525 2390 2251 1874 2076 1750 1762 1644 1391 960 496 412 344
5057 4687 4442 4342 4265 3694 4336 4546 4422 4925 4836 5036 4987 4427 4294 4100 4104 4029 4142 4144 4026 3870 3561 3434 3491 3646 3637 4847 4706 4206 3786 4092 4071 3808 3688 3714 3867 3852 3876 3676 3785 3772 3725 3604 3558 3543 3491 3346 3144 3126 2857 2799 2744 2643 2515 2450 2430 2431 2394 2215 2264 2096 2299 2209 2086 1991 1764 1826 2345 2582 2545 2492 2320 2047 1826 1549 1515 1232 1407 1433 1128 613 564 474 345
4499 4426 4162 4206 4510 4360 4426 4707 4477 4900 5049 4855 5274 4673 4399 4226 4133 3977 4053 4097 3935 3774 3540 3399 3407 3524 3610 4175 4346 4203 4174 4378 4392 4335 4199 4066 3928 3852 3877 3875 3859 3873 3842 3766 3630 3529 3434 3353 3262 3209 3169 3123 3067 2967 2801 2586 2489 2604 2378 2258 2466 2356 2101 1884 1737 1839 2026 2172 2278 2204 2448 2052 2228 1420 1018 827 954 1154 1198 1112 793 685 575 401 7
4264 4757 4795 4923 4635 4436 4540 4941 4614 4779 5270 4879 4990 4652 4462 4421 4242 3799 3930 4054 4017 3934 3735 3450 3360 3410 3600 4004 4182 4109 4042 4029 4123 4190 4180 4150 4137 4123 4085 4040 3970 3953 3950 3916 3858 3771 3640 3593 3570 3503 3428 3348 3277 3215 3171 3096 2991 2927 2799 2643 2568 2535 2505 2521 2595 2526 2428 2330 2174 2170 2065 1814 1463 1078 1062 1193 1050 947 1065 1064 838 601 501 443 268
3032 3043 2614 3536 4224 4366 4247 4777 4551 4597 4983 5284 5197 4908 4635 4502 4288 3945 3679 3753 3918 3966 3875 3716 3524 3413 3451 3831 4135 4166 4156 4146 4135 4098 4131 4143 4150 4149 4161 4124 4095 4043 4034 4025 3953 3829 3735 3666 3629 3610 3561 3526 3487 3423 3306 3218 3172 3117 3034 2987 2968 2912 2882 2902 2597 2578 2392 2281 2289 2144 1863 1570 1113 1300 1077 981 907 926 936 933 843 617 526 537 522
2457 2229 1952 2106 2659 3328 4163 4722 4812 4729 4308 5086 5073 5029 4973 4731 4420 4280 3831 4194 4262 4218 3923 3884 3740 3554 3425 3453 3755 3962 4034 4092 4135 4178 4197 4187 4184 4169 4179 4204 4199 4145 4058 3972 3872 3771 3711 3736 3736 3749 3640 3551 3432 3337 3298 3305 3212 2880 2570 2552 2564 2623 2660 2738 2565 2439 2344 2167 1957 1782 1711 1619 1267 1323 1455 994 839 911 740 778 851 706 468 461 453
1975 2074 1819 1972 2437 2751 3786 4740 5037 4536 4381 4784 5329 5307 5035 5008 4813 4444 4180 4161 4103 4264 3925 3848 3811 3778 3644 3463 3388 3513 3802 3962 4055 4122 4169 4192 4171 4174 4162 4155 4102 4006 3930 3820 3649 3735 3699 3675 3779 3807 3735 3505 3404 3246 3403 3379 3133 3017 2757 2435 2678 2764 2130 2165 1925 2144 2151 2096 1799 1598 1452 1424 1409 1371 972 764 858 836 717 804 766 516 423 458 366
1855 2066 2230 2250 2166 2203 2605 3470 3878 4672 5192 5113 5209 5109 4380 4491 4765 4844 4684 4415 4266 3991 3929 3792 3707 3729 3750 3656 3481 3416 3442 3526 3657 3820 3882 3910 3947 3955 3922 3814 3638 3686 3745 3760 3728 3718 3747 3742 3709 3741 3628 3548 3388 3398 3394 3229 3114 2949 2929 2775 2432 2279 2400 2153 2046 2015 1965 1912 1770 1669 1505 1306 856 938 685 628 690 611 706 746 541 388 551 528 242
2032 2205 2159 2286 2224 2010 2326 2951 3555 4240 4951 5022 5314 5205 5045 4618 4522 4161 4134 4379 4291 4196 4062 3910 3793 3666 3647 3665 3714 3597 3430 3408 3431 3466 3477 3467 3430 3464 3485 3516 3539 3631 3688 3622 3611 3591 3607 3651 3628 3628 3681 3721 3738 2913 3032 3014 2921 2513 2494 2626 2286 2162 2000 2068 2294 1835 1297 1102 930 1202 1172 846 987 956 877 893 685 620 530 534 550 484 268 2 0
2216 2354 2082 2085 2112 2480 2394 2743 3140 4022 4130 4214 4090 4180 4347 4258 4068 3909 3960 3873 3795 4100 4130 4000 3882 3773 3684 3578 3549 3564 3610 3610 3607 3557 3533 3514 3479 3474 3524 3582 3641 3710 3716 3691 3565 3410 3386 3448 3519 3644 3732 3832 3720 3394 3138 2970 2769 2794 2665 2260 1764 1333 1824 1703 1580 1219 1061 911 935 1001 864 727 665 682 699 716 469 392 408 334 0 0 0 0 0
1635 2219 2386 2285 2496 2572 2474 2566 3074 3532 3767 3982 4030 4022 3715 3672 3660 3639 3672 3656 3615 3545 3603 3679 3692 3687 3650 3515 3427 3403 3366 3422 3438 3392 3390 3400 3408 3450 3489 3530 3520 3572 3629 3672 3589 3520 3452 3452 3512 3602 3659 3713 3690 3544 3421 3025 2582 2534 2529 2145 1860 1880 1732 1620 1446 1108 966 998 1032 984 880 852 848 807 649 544 496 469 367 172 1 1 1 2 9
1263 1295 1932 2138 1939 2220 2349 2430 3164 3496 3559 3593 3416 3290 3330 3487 3453 3528 3468 3522 3494 3481 3421 3369 3318 3330 3337 3347 3352 3279 3173 3174 3313 3391 3386 3354 3325 3297 3285 3299 3312 3352 3408 3515 3548 3628 3670 3664 3686 3679 3666 3653 3338 2934 2357 2528 2400 2126 1987 1953 1927 1690 1194 1252 1184 974 833 1002 898 824 819 814 716 628 517 392 398 167 7 7 4 1 2 17 18
1376 932 1351 2030 2098 2348 2241 2387 2617 3025 3258 3286 3329 3220 3268 3243 3256 3314 3338 3355 3280 3101 2903 2744 2692 2663 2737 2894 3002 3004 2975 2925 3075 3240 3264 3244 3245 3241 3240 3236 3295 3346 3354 3431 3507 3539 3530 3580 3650 3526 3483 3316 3171 2947 2497 2312 2372 2360 2377 2070 1877 1339 920 768 728 812 1101 949 956 816 758 696 594 398 410 363 60 16 26 27 13 5 13 16 14
1168 1017 1299 1744 1972 2065 1904 2200 2428 2618 2583 2478 2744 3115 3177 3139 3178 3224 3199 3069 2646 2446 2413 2508 2534 2521 2676 2792 2825 2902 2929 2967 3015 3166 3223 3244 3204 3178 3166 3216 3316 3407 3390 3364 3453 3427 3354 3201 3240 3058 2682 2501 2462 2386 2360 2192 1927 1834 1689 1451 1196 888 784 927 923 982 888 816 509 539 664 630 601 454 79 13 4 0 0 0 4 4 1 0 0
1103 877 850 1174 1629 1854 1894 1935 1923 2006 2274 2472 2642 2793 2931 2883 2789 2726 2731 2743 2758 2875 2915 2847 2818 2808 2831 2885 2922 2993 3025 3037 3124 3189 3210 3175 3138 3136 3199 3292 3356 3423 3386 3076 2486 2347 2574 2699 2533 2475 2366 2245 2160 1942 1682 1606 1492 1383 1375 1270 1126 1174 885 954 1072 1031 917 776 542 512 240 122 0 0 0 0 0 0 0 0 0 0 0 0 0
881 797 654 635 1011 1192 1404 1720 1854 2060 2432 2643 2756 2887 2953 2905 2985 3004 2998 3051 3045 3151 3106 3179 3175 3190 3154 3091 3097 3130 3119 3098 3163 3196 3206 3251 3273 3265 3304 3248 3115 2822 2666 2585 2523 2531 2389 2160 1928 1753 1784 1794 1754 1679 1606 1603 1570 1427 1271 1154 1190 1218 726 736 874 774 711 494 0 0 0 0 0 0 0 0 0 0 0 0 0 0 0 0 0
815 809 733 558 668 877 1352 1743 1907 2019 2288 2604 2836 2792 2915 2982 2956 2954 2932 3000 3100 3140 3134 3084 2923 2921 3002 3141 3080 3030 3052 3120 3143 3103 3055 2975 2954 2976 2825 2565 2387 2275 2214 2152 2147 2103 2101 1945 1826 1685 1528 1609 1604 1584 1559 1541 1477 1436 1373 1306 1001 810 569 289 206 0 0 0 0 0 0 0 0 0 0 0 0 0 0 0 0 0 0 0 0
768 740 720 443 147 732 1185 1573 1742 1899 2152 2429 2578 2596 2745 2829 2788 2891 2894 2901 2954 2886 2999 3042 3046 3101 3109 2963 2780 2767 2831 2858 2570 2395 2319 2430 2387 2279 2121 2038 2018 1947 1965 1908 1993 2119 1951 1692 1564 1343 1247 1330 1274 1341 1205 1221 1099 1064 1039 902 664 382 0 0 0 0 0 0 0 0 0 0 0 0 0 0 0 0 0 0 0 0 0 0 0
72 423 620 690 516 198 646 820 1166 1463 1785 1898 1960 2177 2292 2395 2504 2542 2672 2788 2823 2814 2799 2764 2744 2759 2752 2682 2674 2621 2528 2376 2265 2130 2015 1881 1864 1744 1799 1809 1755 1607 1625 1682 1761 1712 1488 1272 1095 1088 1027 1022 985 972 949 876 884 841 744 469 34 0 0 0 0 0 0 0 0 0 0 0 0 0 0 0 0 0 0 0 0 0 0 0 0
10 7 3 4 247 219 1 1 307 861 1030 1414 1628 1765 1892 1985 2091 2071 2200 2182 2243 2332 2418 2444 2422 2427 2434 2407 2367 2184 1847 1752 1760 1845 1848 1771 1670 1659 1715 1724 1628 1456 1340 1253 1195 1176 1075 892 839 863 870 896 871 816 746 762 719 585 339 0 0 0 0 0 0 0 0 0 0 0 0 0 0 0 0 0 0 0 0 0 0 0 0 0 0
Wind_Speed
18 18 19 19 22 22 21 21 21 20 18 17 16 15 13 11 10 9 12 11 11 11 13 11 11 9 8 6 5 5 4 4 4 3 3 3 5 5 4 5 5 6 6 6 7 4 4 2 2 3 2 2 1 1 2 4 6 4 2 1 1 3 4 4 6 8 7 7 9 8 10 10 10 7 8 8 8 8 10 12 15 16 17 16 17
16 18 17 19 21 22 22 22 21 21 19 18 18 18 15 13 13 11 13 12 12 12 13 12 11 9 7 7 7 6 6 5 3 4 2 2 3 5 6 3 6 6 6 7 8 7 5 4 2 2 3 2 1 2 2 3 4 6 6 5 3 4 4 4 5 6 8 6 8 7 7 8 9 6 6 5 5 5 6 8 12 14 16 17 18
16 17 17 18 20 21 22 22 22 21 20 19 19 19 17 15 14 13 13 14 14 14 15 12 12 10 7 8 8 8 7 5 5 4 3 1 2 4 4 4 5 7 7 7 8 7 7 5 6 5 4 4 5 4 3 3 3 3 1 1 2 3 3 4 3 5 7 7 5 7 5 4 4 6 7 8 8 7 9 11 13 14 15 16 19
17 17 18 18 20 21 22 22 22 21 20 19 20 21 20 18 16 14 13 15 16 16 17 14 14 12 9 9 9 9 9 7 5 4 3 1 1 3 3 3 5 6 7 8 9 8 8 7 7 8 7 5 4 4 4 3 3 2 3 4 4 4 5 5 4 5 5 7 5 5 4 4 6 7 8 8 9 9 11 12 15 17 18 19 21
16 17 18 19 20 20 21 22 21 21 20 18 20 22 22 21 18 16 15 14 16 17 17 16 15 13 11 10 10 9 9 8 6 4 3 2 1 2 3 2 4 6 7 7 8 9 9 8 8 7 6 6 5 4 3 2 2 1 1 0 1 1 2 2 3 3 3 6 6 3 3 2 4 8 9 9 8 10 12 14 16 18 20 22 23
15 18 18 18 19 21 21 21 21 21 20 18 20 21 22 22 21 18 16 15 17 18 18 17 16 15 13 12 12 11 10 9 7 5 3 2 2 1 2 3 4 4 7 8 8 8 8 8 8 7 7 7 5 2 1 2 1 1 1 1 2 2 1 1 1 2 2 4 4 4 2 3 2 5 7 8 8 8 10 14 17 19 20 20 20
13 16 18 18 18 19 21 20 21 21 20 19 19 19 20 21 21 20 18 16 16 17 18 18 17 17 16 14 13 13 11 9 8 6 5 4 4 3 3 5 5 5 6 8 9 9 9 8 7 7 7 6 5 3 1 2 1 1 2 1 2 2 2 3 2 2 1 2 2 2 2 1 2 3 4 5 8 10 10 12 15 17 17 14 12
13 14 15 15 16 18 18 20 20 20 21 20 19 20 19 20 21 20 19 17 15 16 18 18 18 18 18 16 15 14 13 10 9 8 6 5 6 4 3 4 6 6 7 8 8 8 8 8 8 7 6 5 4 3 3 3 4 4 3 3 3 3 2 2 2 2 1 1 1 2 3 2 1 3 4 4 5 6 10 11 11 11 13 15 14
15 14 13 12 13 15 17 19 20 20 21 20 19 20 20 19 21 21 20 17 15 15 18 19 19 18 18 18 16 15 14 11 10 9 8 6 6 6 5 5 5 6 7 8 8 7 7 8 8 7 7 8 8 5 4 4 5 5 5 5 4 4 3 4 3 2 2 2 1 2 3 2 2 3 2 2 5 5 5 9 10 9 10 12 18
18 15 14 12 12 15 17 17 19 20 21 21 19 20 21 20 21 21 20 18 17 16 17 21 20 19 19 19 18 17 15 14 11 10 11 9 7 6 6 5 5 6 8 8 8 8 8 7 7 12 13 14 13 11 9 7 6 6 7 7 6 5 5 6 5 4 3 3 3 4 4 4 4 4 3 3 3 4 7 9 7 7 7 10 13
19 17 17 15 13 14 16 16 18 19 20 20 20 19 20 21 21 21 20 20 18 18 18 20 20 20 19 18 18 17 16 15 13 13 13 10 8 7 7 7 7 6 7 9 8 8 8 8 6 5 8 12 14 14 11 10 8 7 4 4 7 9 9 8 7 6 5 4 6 7 6 5 6 7 6 5 5 9 9 9 8 7 6 3 3
20 18 20 19 15 15 16 17 17 17 18 20 20 19 20 21 21 21 21 21 20 20 18 18 20 22 20 18 17 17 17 16 18 16 15 12 9 8 6 7 9 9 7 8 9 8 8 8 9 8 6 10 13 12 11 11 10 9 7 5 4 6 8 9 8 7 6 7 8 8 8 6 7 8 7 6 8 10 9 11 11 9 6 6 6
21 19 20 20 17 16 17 17 16 16 17 19 20 20 19 20 21 21 20 22 23 21 20 18 20 22 22 20 17 16 17 19 21 19 17 15 11 9 7 6 8 10 9 8 9 10 9 8 7 8 7 11 15 15 13 11 9 10 8 6 4 5 3 4 7 6 7 7 7 8 9 8 6 6 9 9 11 9 12 13 13 11 9 9 9
21 20 20 20 19 18 18 17 17 16 17 18 20 20 19 19 20 21 21 22 23 22 20 20 20 21 22 22 19 17 17 21 22 21 20 18 14 11 9 7 6 8 11 11 9 10 11 11 11 9 8 8 11 14 15 13 12 10 11 12 11 7 5 4 3 5 8 8 8 9 9 11 7 7 10 13 12 12 15 14 15 12 12 12 13
23 21 20 19 19 19 19 19 18 17 18 17 18 19 19 19 19 20 20 21 22 22 22 21 21 20 22 23 22 18 18 23 24 23 22 21 17 13 9 7 7 8 10 12 12 11 11 12 12 12 12 10 10 12 15 15 13 12 12 11 11 10 10 9 10 11 12 12 11 10 10 11 9 9 9 14 17 17 18 16 15 15 14 14 16
24 22 20 19 18 18 20 20 19 19 19 18 18 18 19 19 19 19 20 20 21 22 23 21 21 21 21 21 20 19 18 25 24 24 24 24 22 18 11 8 6 7 11 12 13 13 12 12 13 13 13 14 13 13 13 15 16 16 16 14 13 13 11 10 10 12 12 14 14 13 13 13 14 13 17 17 15 17 18 18 19 18 17 17 17
24 23 21 19 18 18 19 21 21 22 21 19 18 19 20 20 19 20 19 20 21 22 22 21 22 21 21 22 19 19 23 22 24 24 26 26 27 21 14 11 8 8 10 13 13 13 13 13 13 13 13 14 15 17 15 15 14 14 15 15 14 13 13 13 13 14 15 14 15 15 14 14 19 16 16 17 16 18 19 20 20 21 20 19 20
22 23 22 21 19 18 19 20 22 23 23 21 20 19 20 20 20 20 19 19 19 20 21 21 20 20 20 21 21 21 21 24 23 24 25 28 28 23 17 13 11 11 12 12 13 14 13 12 12 12 13 14 15 18 18 18 15 14 14 14 14 12 14 14 15 15 12 12 11 11 12 11 10 9 9 15 22 24 23 22 23 23 22 22 21
22 23 23 23 22 20 21 21 21 23 23 23 22 21 21 21 21 21 20 19 19 21 21 20 19 20 20 20 20 22 20 25 21 25 25 28 27 24 20 16 13 15 17 15 14 14 15 13 11 12 13 13 14 18 20 21 17 16 14 14 14 13 14 16 13 16 22 19 16 16 15 14 13 12 13 15 20 25 25 25 25 25 24 23 23
23 24 26 27 25 24 23 23 22 22 24 25 24 22 22 22 22 21 20 19 20 20 21 20 19 18 19 19 22 23 21 28 23 22 27 27 26 25 23 19 16 19 19 18 17 15 14 15 14 13 13 14 15 19 20 22 19 18 17 15 14 13 16 14 15 17 21 20 20 20 18 17 15 15 15 16 18 22 26 27 27 27 26 25 26
30 31 30 29 28 27 26 25 24 22 23 25 25 24 22 22 23 22 21 20 21 20 20 20 19 18 18 19 20 21 20 25 26 23 24 26 25 24 23 19 20 22 22 21 19 17 17 16 15 17 18 16 17 20 22 22 19 19 18 16 16 21 24 19 22 19 21 21 21 21 20 19 16 13 14 18 20 23 27 27 28 28 26 27 28
35 35 33 31 29 29 29 29 27 24 24 26 26 24 23 23 24 24 22 22 21 21 19 20 19 19 18 18 19 20 21 23 30 23 23 24 25 23 22 20 22 24 23 21 20 18 18 19 18 18 22 21 21 21 23 24 21 19 17 20 28 26 22 23 20 20 20 20 21 21 20 19 18 17 15 20 23 25 28 28 30 29 30 33 32
39 38 36 34 32 30 31 32 31 26 25 26 27 26 25 25 25 25 24 23 22 21 20 19 19 20 19 19 19 20 23 25 30 26 23 23 24 21 18 20 23 24 23 21 21 19 20 20 19 21 24 24 24 23 23 24 24 21 21 28 26 27 25 22 20 18 19 20 21 21 21 21 18 18 20 21 28 28 28 29 31 31 35 34 34
43 42 39 36 35 34 33 34 34 30 27 27 27 27 25 25 26 26 25 24 23 21 21 19 18 18 18 18 18 19 22 26 27 27 25 23 22 21 17 16 25 22 22 21 22 21 20 19 19 21 26 27 27 26 24 26 24 23 22 27 27 25 23 22 19 18 18 19 20 21 22 21 20 21 22 27 30 30 31 31 33 34 36 35 35
46 45 42 39 38 36 35 35 35 31 28 28 27 26 26 26 26 27 26 25 24 22 21 20 19 18 18 17 18 18 21 24 27 23 25 24 22 20 17 16 17 22 22 22 20 23 28 27 25 22 25 26 28 27 25 25 24 24 23 24 24 24 23 22 20 20 19 19 21 22 23 22 24 25 29 30 30 29 31 33 35 35 35 37 37
47 46 44 42 40 37 34 34 34 32 29 29 26 26 26 26 26 27 27 25 24 22 20 20 19 18 17 16 17 18 20 21 25 25 23 22 20 19 18 16 16 19 19 23 30 32 29 32 32 31 29 27 28 28 26 25 25 23 24 25 24 23 23 23 22 20 20 21 22 23 24 25 24 28 32 33 31 31 33 36 36 35 37 38 37
45 44 44 42 40 37 34 32 33 33 31 29 27 26 25 25 26 27 27 26 24 22 21 19 19 18 16 16 17 18 19 19 23 24 25 24 22 20 18 17 16 19 21 28 29 28 27 24 26 26 27 27 25 27 28 31 30 26 25 23 23 23 23 23 23 22 20 22 23 23 26 25 30 32 33 34 33 32 36 39 38 37 38 39 38
41 40 39 40 39 35 34 33 34 34 32 29 27 25 24 24 24 25 26 25 23 21 20 18 18 18 17 17 18 18 18 17 20 22 22 24 24 25 25 25 25 24 22 21 23 24 25 25 24 23 22 22 22 24 24 24 24 25 24 23 22 23 22 20 21 22 22 23 24 26 27 32 32 33 33 34 33 35 38 40 39 39 38 39 38
37 36 38 38 36 34 34 35 35 35 34 31 27 24 22 22 23 24 24 24 22 21 19 18 18 18 19 19 19 18 17 16 16 22 21 22 25 27 26 23 22 22 18 19 19 19 20 19 17 16 16 16 18 19 20 21 21 21 22 21 22 22 21 22 23 24 25 28 28 31 31 31 33 33 34 34 35 39 40 42 40 39 38 38 39
34 35 36 36 34 34 34 36 36 35 33 30 28 32 36 37 29 25 24 23 20 19 21 19 20 20 20 21 20 19 17 18 20 27 24 23 23 25 22 22 20 18 19 20 17 14 14 14 14 16 16 16 17 18 19 20 21 22 21 22 21 21 21 21 23 24 28 29 32 32 32 33 34 34 35 35 38 38 42 42 39 38 38 38 37
33 34 34 33 32 33 34 36 36 36 35 30 29 30 31 34 41 42 35 25 24 26 24 26 27 26 25 23 26 26 20 21 23 26 24 21 21 20 20 20 20 18 22 22 15 13 12 13 15 16 17 16 17 18 18 20 21 21 22 23 22 22 21 21 24 28 30 31 32 33 33 34 35 36 36 36 40 38 40 40 38 38 38 38 39
33 32 31 31 30 31 34 36 37 36 34 30 29 28 30 32 34 42 44 40 37 36 34 33 33 32 31 28 27 25 24 18 24 24 21 19 18 19 21 23 22 23 23 27 20 17 16 16 17 18 19 19 18 18 19 20 20 21 22 22 23 23 22 22 27 29 32 32 33 35 34 36 37 38 38 37 38 38 39 39 38 39 39 40 40
32 32 31 30 31 32 34 36 37 35 32 29 28 27 30 31 32 32 36 40 40 40 41 39 37 34 33 29 25 22 21 19 21 23 22 20 20 21 23 26 27 26 30 26 21 20 20 19 18 19 21 21 21 21 21 22 22 25 25 25 24 26 24 30 34 32 32 33 35 36 37 40 42 46 43 38 36 34 35 37 40 40 41 41 40
30 33 33 32 33 34 35 36 36 35 32 28 29 28 28 29 31 32 30 30 33 36 38 39 36 35 35 32 29 31 28 25 24 25 25 25 26 28 33 31 32 29 30 26 25 22 23 21 21 21 22 22 23 23 24 25 27 29 29 28 27 30 35 38 38 37 36 39 40 43 46 49 49 44 46 37 34 33 36 38 39 40 41 41 nan
36 37 32 37 38 37 36 37 36 33 31 28 30 29 28 28 32 30 27 27 27 27 27 30 34 37 33 32 34 32 32 32 31 32 33 34 35 37 41 37 32 26 24 23 27 27 26 25 23 24 25 25 25 25 27 29 31 33 34 34 35 38 41 41 41 43 43 46 50 46 49 47 46 48 47 44 41 41 40 38 38 39 41 40 40
59 58 50 42 42 38 36 36 36 33 31 31 31 32 31 30 30 29 26 27 28 29 29 31 31 32 38 40 39 38 36 34 34 35 36 37 38 41 35 31 32 30 29 28 29 30 29 27 27 26 27 27 28 29 31 33 36 39 41 42 42 45 45 46 46 50 51 49 46 40 44 46 45 48 45 44 45 44 41 38 38 40 41 41 41
53 55 57 52 46 40 36 37 36 34 33 34 34 34 33 32 30 30 28 27 29 28 32 35 33 34 35 36 38 42 42 41 41 40 37 38 38 36 34 35 34 36 33 33 32 33 32 30 30 29 29 29 30 33 36 39 42 45 46 46 45 48 50 49 50 50 50 46 42 42 45 43 43 43 43 41 40 40 40 39 41 40 39 42 42
50 52 53 52 45 41 39 38 38 36 35 35 36 35 34 33 31 32 29 29 27 31 36 33 34 34 33 34 34 36 41 43 46 46 43 41 36 34 37 38 38 37 38 36 36 35 35 37 37 37 40 38 39 41 43 46 47 48 48 49 51 54 59 57 54 49 46 45 43 43 42 40 38 38 37 37 36 35 38 40 40 39 40 44 42
48 52 59 62 57 52 47 45 40 36 35 36 37 36 35 34 35 36 36 37 37 37 36 36 36 36 39 40 40 42 43 41 39 40 40 39 39 39 40 41 40 39 40 41 40 40 40 41 41 42 43 44 44 44 46 49 52 53 52 53 53 52 53 49 47 47 48 47 43 38 39 37 33 34 35 36 36 36 36 37 39 41 41 42 43
48 46 55 64 53 52 52 52 47 42 42 41 42 40 39 37 39 40 39 38 39 38 39 40 40 42 45 45 47 45 43 43 42 43 44 44 44 45 47 48 47 46 46 45 43 43 43 43 42 42 42 43 45 47 49 52 54 55 55 55 53 52 50 46 44 46 47 46 39 34 34 36 33 33 37 39 38 37 38 38 42 43 42 nan nan
53 52 53 59 61 51 51 51 49 46 47 47 45 43 42 41 42 41 41 42 41 42 43 45 47 47 49 53 52 47 44 45 46 47 47 48 50 52 52 51 50 50 49 46 46 45 45 45 45 44 44 45 47 49 51 52 53 56 56 53 50 50 50 45 42 43 43 40 36 34 36 37 34 36 39 37 40 41 42 43 nan nan nan nan nan
55 55 55 56 58 53 47 44 40 40 41 43 44 43 44 45 45 47 47 45 44 44 46 49 50 50 52 54 47 44 44 44 44 46 49 50 51 50 50 50 51 51 50 49 48 48 47 47 47 47 47 47 48 49 50 49 50 51 50 48 48 48 48 44 39 38 39 39 38 38 38 38 38 40 43 44 43 44 44 41 nan nan nan nan nan
57 56 54 53 53 50 45 40 37 38 40 43 44 45 48 50 51 52 50 47 45 45 46 47 47 46 45 44 43 43 44 44 44 47 49 50 50 49 49 49 50 50 49 49 49 49 49 49 49 48 48 49 48 47 46 45 46 47 46 45 46 46 44 40 37 38 37 37 41 41 41 43 43 43 43 44 46 45 nan nan nan nan nan nan nan
60 58 56 56 52 50 48 44 42 41 42 45 47 49 51 51 51 50 48 47 46 46 47 48 47 46 47 49 50 48 44 44 44 46 47 47 47 47 47 48 50 49 49 49 48 49 49 49 48 47 48 49 49 49 47 46 45 46 46 48 49 50 47 45 45 44 43 44 45 44 45 46 45 44 45 46 nan nan nan nan nan nan nan nan nan
62 62 60 57 53 51 51 49 44 42 44 47 49 50 51 51 50 50 49 50 50 50 50 49 48 48 49 49 48 46 43 43 44 45 44 44 45 46 46 47 47 47 47 46 45 46 46 47 47 48 49 49 47 48 48 48 50 50 49 49 50 48 45 44 45 47 49 49 47 46 47 47 47 47 nan nan nan nan nan nan nan nan nan nan nan
64 64 65 62 58 56 56 55 51 48 49 50 52 53 53 52 52 52 52 52 53 53 52 51 51 51 51 49 47 46 45 44 44 44 44 44 45 45 45 45 45 45 45 45 45 47 47 47 47 47 48 48 48 48 49 50 51 51 50 50 49 48 46 44 48 51 52 52 49 50 47 47 nan nan nan nan nan nan nan nan nan nan nan nan nan
68 68 67 65 64 62 62 61 59 57 56 55 56 57 56 55 55 55 54 55 54 54 54 54 53 52 51 50 48 46 44 44 44 45 45 45 45 44 44 44 45 46 46 47 47 47 47 49 48 48 49 48 50 52 52 51 52 51 50 50 50 50 50 48 51 52 51 52 nan nan nan nan nan nan nan nan nan nan nan nan nan nan nan nan nan
72 71 71 69 66 65 65 63 62 62 61 61 61 60 59 58 58 58 57 57 56 56 57 57 56 54 54 52 50 48 46 46 46 45 46 46 46 46 47 48 48 48 49 49 49 49 49 49 50 50 51 52 53 53 53 52 52 52 53 53 53 52 52 53 54 nan nan nan nan nan nan nan nan nan nan nan nan nan nan nan nan nan nan nan nan
74 73 72 70 69 68 67 65 64 63 63 64 65 65 63 62 61 61 62 62 61 57 58 59 58 55 54 52 51 49 48 47 48 48 48 49 49 49 50 50 51 51 51 51 51 52 52 52 52 53 54 54 54 54 55 55 55 56 56 56 55 56 nan nan nan nan nan nan nan nan nan nan nan nan nan nan nan nan nan nan nan nan nan nan nan
nan 77 74 71 70 69 70 70 69 67 65 65 66 66 66 66 66 66 66 66 66 65 64 61 58 56 54 54 53 52 51 51 50 50 50 51 51 52 52 52 53 53 54 55 55 55 55 55 55 56 57 57 58 58 58 58 58 58 57 57 nan nan nan nan nan nan nan nan nan nan nan nan nan nan nan nan nan nan nan nan nan nan nan nan nan
nan nan nan nan 72 71 nan nan 73 72 71 69 67 67 68 70 71 71 71 73 71 68 63 59 57 57 57 56 54 53 53 53 53 53 54 54 54 54 54 54 55 55 56 57 56 56 56 56 57 58 59 60 60 60 60 60 60 60 61 nan nan nan nan nan nan nan nan nan nan nan nan nan nan nan nan nan nan nan nan nan nan nan nan nan nan
Wind_Direction
302 287 279 276 276 280 281 275 275 271 273 271 272 272 268 264 262 252 255 259 260 264 266 267 271 271 279 262 254 232 199 170 169 179 142 128 115 109 96 29 51 66 73 78 62 47 356 322 283 279 274 288 307 14 49 352 341 358 26 99 69 50 64 77 91 99 99 85 95 96 94 93 87 71 75 67 53 46 32 21 21 22 25 21 18
310 290 282 278 283 285 286 281 278 273 280 273 275 274 274 269 265 256 263 265 265 273 270 270 266 272 267 249 220 216 205 194 186 191 182 135 113 93 103 52 37 57 56 61 72 69 41 25 31 19 357 43 37 52 53 78 358 357 358 18 32 74 50 67 79 94 102 102 94 92 97 89 85 66 68 83 73 63 58 36 31 30 25 19 14
315 291 285 279 282 282 283 284 283 286 289 282 287 286 283 280 271 271 266 272 268 272 278 279 270 270 248 232 219 207 217 218 203 207 201 140 79 85 74 72 33 35 44 45 47 56 62 40 35 35 40 33 39 57 71 83 120 139 160 358 17 48 56 46 82 100 106 107 100 105 96 92 91 100 92 77 66 51 36 29 29 26 21 21 18
327 308 293 290 288 283 283 283 294 295 296 290 295 292 289 287 279 277 271 271 276 272 282 286 279 274 257 228 222 210 216 226 223 226 222 254 46 66 80 31 34 32 34 33 34 34 43 45 38 33 35 44 34 26 40 76 95 91 126 141 171 170 175 165 148 146 139 125 114 103 106 96 80 73 73 72 68 48 30 28 25 26 25 20 18
335 323 309 303 297 288 291 290 295 299 300 296 302 298 294 293 286 287 279 278 281 277 277 284 281 278 267 239 231 224 219 227 240 243 233 235 337 22 51 46 13 15 27 33 27 24 26 30 31 32 31 38 33 27 28 62 67 81 100 176 111 170 168 157 131 126 120 104 108 87 79 63 57 69 70 74 52 29 22 20 19 23 23 23 18
336 328 321 312 298 300 295 295 298 302 302 299 300 298 296 295 296 291 287 279 276 284 282 285 282 280 268 249 239 238 229 229 237 246 266 268 280 342 352 11 21 7 12 21 30 27 24 21 25 17 19 24 35 26 351 14 28 83 155 180 230 247 240 197 135 107 88 92 94 103 49 52 45 59 76 59 42 30 23 16 13 16 19 19 12
321 329 331 328 308 302 299 297 294 298 293 289 288 288 293 297 300 300 292 283 281 285 289 287 282 281 273 257 248 246 241 239 239 248 253 263 281 312 354 350 1 5 7 15 20 22 25 23 16 16 10 9 11 16 306 287 281 237 259 255 241 229 202 190 185 161 118 85 76 55 77 25 32 91 78 62 44 30 30 18 7 1 353 352 6
311 320 330 331 320 308 297 291 293 290 288 281 281 286 288 289 290 291 289 290 288 287 288 289 283 282 280 269 255 250 248 243 246 254 256 261 279 304 333 332 348 354 1 3 12 17 11 16 24 11 4 353 349 325 308 269 258 257 259 252 251 256 250 237 238 229 220 264 282 239 254 234 156 84 80 56 25 17 7 0 353 348 347 341 346
300 313 320 329 320 308 290 284 283 285 289 286 285 286 285 280 280 284 285 289 285 283 281 286 284 286 283 276 267 259 255 249 246 256 263 269 268 296 320 332 334 335 346 358 1 3 12 14 11 13 347 353 354 341 327 298 263 264 264 266 265 272 266 271 273 258 248 266 277 293 304 309 1 36 80 33 11 343 342 326 335 341 352 356 345
288 300 314 311 302 303 297 287 282 282 287 292 289 287 285 281 283 283 285 286 276 270 270 274 284 286 283 281 273 264 253 245 254 288 282 269 273 281 294 313 327 325 329 337 349 351 4 13 15 13 4 352 349 349 355 345 309 273 260 266 281 276 272 265 266 270 260 262 277 288 308 317 309 302 274 265 275 289 287 294 319 338 0 6 352
280 286 292 293 291 299 299 296 287 286 286 288 290 289 290 286 282 280 280 280 275 268 263 271 280 280 285 284 281 267 254 247 273 277 288 300 281 274 285 302 316 321 321 320 331 342 342 348 358 14 353 340 337 344 344 347 340 325 312 280 263 263 262 262 262 266 274 279 280 289 294 295 292 277 262 241 267 278 284 298 314 327 339 356 18
274 275 280 284 285 295 298 298 295 291 286 288 290 289 287 286 284 282 282 284 272 268 268 265 269 275 277 282 284 272 259 258 273 278 285 295 292 278 286 292 307 317 320 320 318 321 327 331 332 344 321 311 315 321 326 335 335 334 335 337 313 268 272 279 274 260 257 253 265 275 275 284 273 270 265 262 273 280 292 299 313 321 334 338 352
270 268 272 280 284 290 295 299 299 296 291 287 284 284 286 288 290 288 287 281 276 270 268 265 263 267 272 275 278 276 261 262 271 281 285 293 304 290 280 290 303 311 316 319 311 308 309 307 309 307 328 342 324 317 313 308 319 335 335 327 291 276 283 293 299 299 274 273 272 275 286 273 269 285 285 287 284 290 298 306 308 315 324 336 346
271 272 269 276 281 289 295 297 299 298 291 287 284 287 287 287 292 289 284 279 278 277 273 269 260 259 263 269 269 267 263 261 272 278 283 290 297 290 271 293 299 308 309 311 307 304 307 307 309 310 307 298 294 308 308 303 290 288 284 269 267 266 270 301 341 338 306 294 289 295 298 295 305 298 292 288 289 294 294 305 308 317 326 340 343
265 268 269 271 277 288 295 294 295 296 296 295 291 292 290 283 286 287 287 282 280 278 276 269 264 260 258 259 262 264 258 271 272 274 278 285 288 282 269 286 293 300 302 300 300 300 296 305 306 310 308 307 300 298 302 303 291 281 281 279 278 273 265 272 286 291 293 295 305 309 309 309 309 297 284 284 287 291 298 305 309 319 331 337 341
264 272 272 274 280 285 291 292 292 295 298 301 302 300 296 287 283 279 279 283 280 276 274 270 268 265 262 259 258 261 259 276 277 275 278 279 286 264 268 274 280 287 294 294 292 290 293 298 302 306 305 305 320 332 313 297 293 283 278 277 274 274 274 278 297 303 303 306 311 311 307 314 305 297 281 282 288 291 295 303 311 318 326 328 329
269 278 282 278 277 279 288 290 292 296 299 305 310 308 300 291 280 272 274 279 282 281 280 279 266 264 266 261 256 250 249 270 279 278 275 280 270 261 270 269 281 299 282 273 274 281 290 293 293 299 303 301 314 327 331 313 290 283 273 273 274 273 272 275 308 326 325 326 324 331 329 312 284 292 300 304 301 295 302 310 315 315 316 319 324
273 279 285 285 282 277 280 284 289 295 299 309 312 307 301 292 287 278 276 277 286 288 284 279 271 264 266 264 262 252 247 259 277 276 276 276 274 267 265 266 280 296 291 278 266 267 281 307 304 296 299 299 313 321 324 312 301 292 277 268 268 268 264 259 256 279 318 311 289 274 270 274 281 281 298 318 321 311 309 316 312 309 317 320 322
281 286 286 287 280 274 273 279 284 293 298 305 308 305 304 297 289 281 279 278 277 276 279 280 275 266 266 264 268 262 250 254 273 277 277 276 273 262 261 262 277 290 291 285 278 271 272 287 310 308 301 303 308 315 318 310 301 297 286 271 265 263 263 262 271 267 269 278 284 287 281 284 290 302 311 333 331 318 314 314 312 314 317 320 323
284 281 277 277 276 276 277 279 281 289 294 298 298 298 294 292 293 290 285 279 274 276 281 283 283 275 266 265 262 263 258 254 267 276 279 280 283 268 259 261 276 288 288 287 284 283 281 280 293 314 321 317 316 314 314 316 306 296 288 280 270 269 266 272 268 260 274 276 280 290 290 284 289 296 305 312 316 317 316 313 313 317 319 321 315
269 269 274 278 279 282 281 281 286 292 292 293 292 291 293 295 295 290 288 284 277 275 281 285 290 281 271 264 261 264 262 257 265 277 281 286 290 280 261 264 274 280 282 285 287 287 288 291 290 303 320 325 319 315 314 319 314 300 295 287 278 264 257 264 270 266 266 267 267 274 283 282 285 290 300 307 311 314 309 310 313 315 315 307 304
264 268 275 278 280 284 285 282 285 285 284 285 287 289 291 292 289 290 286 283 283 281 278 279 285 282 274 267 260 257 263 271 260 272 282 284 287 291 266 268 276 279 281 282 286 285 286 290 295 304 317 324 324 316 315 313 319 301 297 288 274 270 261 261 262 266 273 275 276 280 284 289 291 298 299 295 295 293 303 308 311 309 306 305 309
262 266 271 274 274 277 278 281 282 285 283 286 287 288 287 287 286 285 285 282 282 282 282 277 277 279 277 269 261 257 254 259 275 268 276 281 288 292 290 274 283 278 280 282 285 285 284 286 292 311 316 321 323 322 316 316 307 306 304 284 282 274 270 268 269 270 270 274 277 281 285 287 292 292 293 301 295 295 300 300 303 307 307 310 310
258 262 266 271 271 272 273 276 279 280 283 284 284 285 285 284 282 281 283 280 278 278 276 278 276 277 277 270 263 258 255 252 266 281 277 285 284 294 296 284 282 278 279 277 275 279 281 285 288 301 312 317 320 321 320 312 305 316 306 293 282 275 269 272 274 279 281 283 285 284 286 289 292 295 295 287 290 299 298 301 304 305 307 310 314
257 260 264 267 267 270 269 269 274 279 282 284 284 284 284 282 279 279 281 279 277 275 274 276 280 278 273 270 263 258 255 255 255 269 286 285 289 293 299 298 279 285 276 270 271 265 262 263 266 288 305 312 318 320 315 314 316 306 304 293 284 273 275 274 278 281 290 292 290 289 287 290 293 291 288 290 292 297 299 300 301 305 311 314 313
256 258 261 262 265 267 267 270 272 277 278 278 281 279 280 280 278 278 279 278 274 271 269 270 276 276 271 267 262 257 254 251 251 252 256 274 279 295 301 302 289 279 282 269 264 265 266 265 270 274 280 287 289 292 295 300 309 302 294 291 281 277 276 276 277 283 288 291 292 292 291 288 293 289 289 290 295 297 299 299 301 306 308 309 309
252 253 255 258 258 258 263 265 268 271 272 274 277 276 274 275 276 276 278 279 273 268 263 267 270 272 270 264 258 253 252 249 248 246 249 250 248 258 265 267 278 269 258 259 265 265 271 275 277 281 281 296 294 292 288 286 288 288 285 285 281 278 276 275 278 281 285 290 292 291 288 289 283 285 288 291 294 298 299 301 302 302 303 306 307
248 249 254 252 250 253 254 262 265 265 269 277 278 276 272 273 277 278 278 277 271 266 267 269 270 270 264 258 252 251 249 247 248 250 250 252 252 253 257 259 262 263 265 266 271 275 276 275 279 277 284 287 287 286 286 289 292 292 290 287 283 278 276 285 285 280 284 290 289 288 286 285 288 287 290 293 297 300 297 296 297 299 302 303 307
244 246 245 244 246 247 250 253 259 262 265 269 271 269 270 275 275 273 274 265 262 265 268 263 264 261 256 254 253 251 250 250 249 258 264 269 266 259 260 265 269 270 292 304 288 285 280 282 286 293 294 303 303 303 297 294 293 293 293 289 285 283 281 279 283 283 285 290 293 287 289 290 289 291 292 293 294 293 292 292 295 298 300 304 307
243 243 242 244 245 246 246 251 256 258 266 268 266 246 232 237 247 267 264 261 264 263 258 255 256 254 251 250 253 254 252 250 256 272 285 285 291 294 296 299 302 298 305 316 299 289 290 290 298 306 311 316 323 323 320 310 306 304 301 297 293 290 289 286 286 287 284 289 289 289 289 289 289 290 290 289 288 290 290 293 295 298 301 304 304
240 240 241 241 244 245 246 248 253 254 259 264 257 255 250 246 238 232 226 249 258 249 244 246 247 242 247 247 245 241 246 263 277 283 293 298 303 303 305 309 310 307 296 285 282 290 291 297 303 310 314 320 326 331 330 323 320 317 312 306 304 302 298 296 293 288 285 286 286 287 287 287 287 286 286 286 287 289 289 292 295 299 302 303 301
239 237 238 237 240 241 241 245 249 252 255 256 255 258 256 253 242 231 229 231 236 242 244 243 246 248 243 249 255 243 238 258 281 283 295 300 302 301 296 295 298 294 298 302 294 297 300 303 306 310 313 318 322 322 323 325 323 320 313 310 310 308 309 301 293 288 285 285 285 283 283 282 279 278 276 274 277 281 285 291 295 296 297 296 300
241 240 237 236 236 237 238 240 245 248 253 254 255 260 259 255 252 245 230 229 234 235 234 234 237 242 249 249 253 259 263 261 276 281 292 298 295 294 294 295 296 295 286 287 291 296 301 303 304 305 306 308 310 311 314 318 315 313 311 308 308 304 304 288 286 284 284 283 279 277 273 270 265 260 261 264 268 275 281 287 291 294 295 297 300
238 239 238 237 234 234 235 236 239 242 246 250 250 258 258 257 252 248 244 239 235 233 233 232 230 235 237 244 256 257 258 261 263 272 277 278 276 270 267 258 263 278 291 290 287 289 293 299 298 296 298 298 300 303 304 305 303 303 304 302 298 293 284 281 283 284 280 279 276 273 268 266 268 274 275 275 285 290 291 292 294 294 295 296 nan
224 227 235 230 229 230 230 230 235 238 241 245 248 253 253 254 251 250 249 248 248 246 245 237 230 226 234 235 233 248 258 259 260 267 270 271 271 271 267 263 264 260 262 273 284 286 288 289 288 287 287 292 294 294 294 294 294 295 295 292 288 284 283 282 279 279 274 272 270 275 283 286 291 290 292 299 299 298 297 295 293 294 295 296 296
217 210 208 211 214 223 224 225 230 236 236 242 244 246 247 249 250 250 251 249 246 246 245 244 239 236 239 235 236 236 240 251 264 269 272 273 276 276 268 265 267 271 276 278 280 281 279 278 278 279 279 281 283 284 285 288 288 286 285 286 284 281 280 279 276 274 273 277 283 286 287 290 296 299 297 297 299 297 292 293 296 295 295 295 295
225 220 209 203 199 203 216 222 227 230 233 235 238 241 243 246 247 249 250 249 247 246 244 244 246 242 239 238 240 240 242 245 246 250 259 271 279 272 265 268 269 269 271 274 275 275 275 272 270 270 273 275 276 277 279 280 280 278 277 280 283 282 280 279 276 276 277 282 287 287 289 292 292 295 298 297 295 293 294 297 296 295 296 297 298
234 228 222 209 196 189 203 218 223 231 230 230 233 237 240 244 245 248 249 250 253 249 247 250 251 251 252 247 246 245 248 250 252 249 249 249 251 256 262 264 267 269 272 274 277 276 274 268 262 261 261 262 267 268 268 269 271 274 275 274 275 276 280 281 282 283 281 277 279 282 284 284 286 289 291 291 287 282 284 287 289 292 294 298 300
231 230 222 211 201 194 195 203 215 219 226 231 233 235 237 241 243 244 243 241 245 247 251 251 252 253 252 253 252 252 253 252 255 257 258 259 260 258 260 261 262 264 267 271 272 271 269 266 263 260 259 260 262 266 269 271 272 271 272 273 274 275 275 276 277 277 276 275 275 278 280 283 288 291 290 290 291 289 285 285 290 294 294 296 298
222 224 227 224 215 203 200 199 197 204 216 225 230 232 234 240 241 244 246 248 247 248 250 252 251 251 253 255 254 254 254 255 256 257 258 259 260 260 258 259 262 263 264 265 265 265 265 264 265 263 261 259 262 266 268 270 272 274 274 274 274 275 277 280 285 288 288 285 283 283 287 291 290 293 289 285 285 289 289 289 289 288 287 nan nan
218 218 222 227 224 217 212 205 201 203 214 222 228 231 233 239 245 248 250 251 251 251 251 250 249 249 250 252 254 252 254 256 256 256 257 259 259 259 260 261 263 263 264 263 263 263 263 264 264 265 263 262 263 265 268 270 272 274 277 280 282 282 282 284 288 290 293 293 294 295 295 294 294 289 285 288 294 292 285 284 nan nan nan nan nan
222 220 220 225 230 228 222 212 207 212 219 224 229 232 236 241 246 249 251 252 253 249 246 245 245 247 249 255 256 250 254 257 256 257 257 258 259 259 259 259 259 261 262 262 262 262 262 261 261 262 262 261 263 265 266 268 270 273 277 281 285 285 286 289 293 292 291 290 292 294 296 293 289 286 287 285 282 284 286 290 nan nan nan nan nan
227 227 223 223 228 233 230 225 222 225 225 227 230 231 235 239 242 245 246 245 245 244 244 244 247 248 248 251 255 255 255 256 255 255 255 254 255 255 256 257 258 257 257 257 257 258 258 258 257 257 257 258 259 262 265 268 272 274 276 279 280 281 280 281 284 285 285 285 290 291 289 288 286 285 286 287 287 285 nan nan nan nan nan nan nan
231 231 229 228 227 228 225 223 225 228 228 228 230 230 232 236 240 243 247 247 247 247 249 252 252 252 253 253 254 255 258 258 255 253 254 254 253 253 252 253 254 255 255 255 257 258 259 258 257 256 255 255 255 257 257 257 260 265 269 269 268 267 268 272 278 281 282 280 278 282 285 285 286 286 286 288 nan nan nan nan nan nan nan nan nan
230 232 233 231 229 229 225 223 225 230 231 231 231 232 233 236 239 242 245 248 249 251 253 254 253 254 253 253 255 258 260 258 254 251 251 252 252 251 250 251 252 254 254 253 254 255 256 256 256 256 257 256 255 256 257 258 259 262 263 266 269 270 268 270 272 276 277 276 275 276 277 278 278 280 nan nan nan nan nan nan nan nan nan nan nan
227 230 233 231 230 230 228 229 231 233 231 231 233 235 236 237 240 242 245 248 251 254 254 253 254 255 256 256 258 261 261 258 253 251 252 252 253 252 252 253 253 252 251 252 252 252 251 251 253 254 256 258 258 259 259 261 263 264 265 266 268 271 270 272 272 273 275 274 275 276 276 279 nan nan nan nan nan nan nan nan nan nan nan nan nan
225 228 231 232 230 229 229 230 232 232 231 231 234 235 236 237 239 241 243 246 250 252 253 255 255 256 257 259 262 263 262 257 253 252 253 254 254 255 255 254 253 252 250 249 251 252 253 254 255 256 257 258 259 260 261 262 263 264 264 265 267 267 268 271 271 273 275 276 nan nan nan nan nan nan nan nan nan nan nan nan nan nan nan nan nan
224 227 230 231 232 231 230 229 230 232 234 234 233 235 237 239 240 241 243 243 246 251 254 255 255 257 259 260 261 262 262 261 258 257 257 257 257 258 258 257 256 255 254 252 252 252 253 255 256 257 258 258 259 260 261 261 262 263 264 266 267 268 267 267 271 nan nan nan nan nan nan nan nan nan nan nan nan nan nan nan nan nan nan nan nan
224 225 228 230 232 232 232 230 229 232 234 237 237 237 237 238 240 242 243 244 245 246 250 253 255 256 258 259 261 263 264 263 261 259 257 257 257 257 257 256 257 257 257 256 255 255 255 255 256 257 258 259 259 260 260 260 261 263 264 266 265 262 nan nan nan nan nan nan nan nan nan nan nan nan nan nan nan nan nan nan nan nan nan nan nan
nan 225 227 230 233 234 234 233 232 231 231 234 237 240 240 239 238 240 242 243 245 246 246 247 249 251 252 253 256 259 259 259 259 259 259 259 258 258 257 257 258 259 259 260 259 259 259 260 260 260 261 261 261 262 261 262 263 263 265 264 nan nan nan nan nan nan nan nan nan nan nan nan nan nan nan nan nan nan nan nan nan nan nan nan nan
nan nan nan nan 233 236 nan nan 234 234 233 231 233 236 239 241 240 238 239 242 242 241 241 243 246 248 250 253 255 257 257 257 258 259 259 259 260 260 261 261 260 260 260 260 260 260 260 260 260 260 261 262 262 262 262 262 263 263 261 nan nan nan nan nan nan nan nan nan nan nan nan nan nan nan nan nan nan nan nan nan nan nan nan nan nan